QPF
0.33 0.17 0.11 0.10 0.09 0.11 0.11 0.09 0.08 0.06 0.04 0.03 0.03 0.03 0.04 0.03 0.03 0.03 0.03 0.03 0.03 0.03 0.02 0.02 0.02 0.02 0.02 0.02 0.01 0.00 0.01 0.01 0.01 0.01 0.02 0.03 0.04 0.04 0.04 0.06 0.11 0.08 0.04
0.29 0.21 0.15 0.12 0.12 0.10 0.08 0.09 0.09 0.08 0.06 0.05 0.05 0.03 0.04 0.04 0.04 0.04 0.03 0.03 0.03 0.03 0.02 0.02 0.02 0.02 0.02 0.01 0.03 0.01 0.01 0.01 0.01 0.02 0.03 0.03 0.03 0.04 0.05 0.08 0.11 0.09 0.05
0.15 0.13 0.09 0.09 0.10 0.08 0.06 0.07 0.07 0.09 0.07 0.05 0.06 0.06 0.05 0.05 0.03 0.03 0.03 0.03 0.03 0.04 0.03 0.01 0.01 0.02 0.02 0.02 0.03 0.02 0.02 0.02 0.02 0.03 0.04 0.04 0.04 0.04 0.07 0.05 0.05 0.05 0.06
0.12 0.10 0.06 0.05 0.06 0.05 0.06 0.08 0.07 0.08 0.06 0.05 0.06 0.07 0.07 0.05 0.03 0.02 0.01 0.02 0.02 0.03 0.02 0.01 0.01 0.01 0.02 0.02 0.02 0.03 0.05 0.02 0.02 0.06 0.08 0.06 0.04 0.08 0.07 0.02 0.02 0.03 0.03
0.12 0.09 0.06 0.05 0.05 0.05 0.06 0.08 0.08 0.08 0.08 0.06 0.06 0.08 0.07 0.05 0.03 0.02 0.01 0.01 0.02 0.02 0.02 0.01 0.01 0.01 0.02 0.02 0.02 0.02 0.02 0.01 0.04 0.10 0.06 0.05 0.05 0.06 0.03 0.03 0.02 0.03 0.02
0.09 0.07 0.05 0.05 0.05 0.05 0.05 0.07 0.09 0.08 0.07 0.07 0.07 0.08 0.08 0.05 0.05 0.03 0.02 0.01 0.01 0.02 0.02 0.02 0.02 0.02 0.02 0.01 0.01 0.01 0.01 0.02 0.07 0.09 0.04 0.05 0.05 0.04 0.03 0.03 0.03 0.03 0.04
0.09 0.06 0.04 0.05 0.04 0.04 0.04 0.06 0.08 0.08 0.06 0.08 0.09 0.08 0.07 0.07 0.05 0.04 0.02 0.01 0.01 0.02 0.04 0.02 0.02 0.03 0.02 0.01 0.01 0.00 0.01 0.03 0.06 0.03 0.03 0.04 0.04 0.03 0.04 0.04 0.03 0.02 0.02
0.07 0.07 0.04 0.04 0.03 0.03 0.04 0.06 0.08 0.08 0.08 0.10 0.09 0.06 0.06 0.06 0.05 0.03 0.02 0.01 0.01 0.02 0.04 0.04 0.02 0.02 0.01 0.01 0.01 0.01 0.02 0.05 0.03 0.02 0.02 0.02 0.02 0.02 0.03 0.04 0.02 0.01 0.02
0.09 0.08 0.06 0.05 0.04 0.04 0.05 0.07 0.10 0.11 0.11 0.09 0.07 0.06 0.04 0.05 0.04 0.04 0.02 0.01 0.02 0.03 0.04 0.04 0.02 0.01 0.01 0.01 0.01 0.01 0.02 0.03 0.03 0.02 0.02 0.02 0.02 0.01 0.02 0.01 0.01 0.02 0.01
0.10 0.08 0.08 0.08 0.09 0.08 0.09 0.10 0.11 0.12 0.12 0.09 0.07 0.06 0.05 0.05 0.04 0.03 0.02 0.02 0.04 0.06 0.05 0.03 0.02 0.02 0.01 0.02 0.01 0.02 0.01 0.01 0.02 0.01 0.02 0.02 0.01 0.01 0.01 0.01 0.01 0.02 0.01
0.12 0.09 0.09 0.10 0.12 0.13 0.14 0.12 0.11 0.14 0.12 0.10 0.08 0.07 0.07 0.10 0.09 0.06 0.03 0.02 0.04 0.05 0.04 0.03 0.02 0.01 0.01 0.02 0.02 0.01 0.02 0.02 0.01 0.02 0.02 0.02 0.01 0.01 0.00 0.01 0.01 0.01 0.01
0.11 0.09 0.07 0.09 0.12 0.15 0.16 0.14 0.15 0.13 0.10 0.10 0.09 0.10 0.11 0.10 0.10 0.06 0.03 0.03 0.04 0.05 0.05 0.04 0.03 0.02 0.02 0.03 0.04 0.03 0.02 0.03 0.02 0.04 0.03 0.01 0.01 0.01 0.01 0.01 0.01 0.01 0.01
0.06 0.08 0.07 0.08 0.13 0.20 0.23 0.16 0.12 0.12 0.11 0.14 0.13 0.12 0.13 0.09 0.08 0.07 0.06 0.04 0.05 0.07 0.07 0.07 0.07 0.06 0.05 0.06 0.05 0.03 0.02 0.01 0.03 0.06 0.04 0.02 0.01 0.01 0.01 0.02 0.02 0.01 0.01
0.04 0.06 0.07 0.08 0.17 0.27 0.22 0.16 0.12 0.10 0.12 0.15 0.12 0.10 0.10 0.08 0.08 0.08 0.06 0.05 0.06 0.06 0.06 0.07 0.07 0.06 0.05 0.03 0.04 0.03 0.02 0.01 0.02 0.03 0.03 0.01 0.01 0.01 0.01 0.01 0.02 0.02 0.02
0.03 0.03 0.07 0.09 0.16 0.25 0.22 0.20 0.16 0.13 0.14 0.13 0.10 0.08 0.07 0.07 0.07 0.06 0.05 0.06 0.06 0.05 0.04 0.06 0.06 0.05 0.03 0.03 0.03 0.02 0.01 0.01 0.03 0.03 0.04 0.02 0.01 0.01 0.01 0.01 0.02 0.02 0.02
0.03 0.03 0.03 0.05 0.08 0.13 0.19 0.20 0.18 0.16 0.15 0.13 0.10 0.07 0.05 0.05 0.06 0.06 0.05 0.05 0.05 0.04 0.03 0.06 0.05 0.05 0.03 0.03 0.02 0.01 0.01 0.01 0.03 0.02 0.09 0.06 0.02 0.01 0.01 0.01 0.01 0.01 0.02
0.03 0.04 0.02 0.03 0.05 0.06 0.08 0.13 0.14 0.15 0.14 0.11 0.09 0.06 0.04 0.05 0.06 0.05 0.06 0.06 0.05 0.05 0.04 0.05 0.04 0.05 0.04 0.03 0.02 0.01 0.02 0.01 0.01 0.01 0.03 0.03 0.03 0.03 0.02 0.01 0.02 0.02 0.02
0.02 0.04 0.03 0.03 0.05 0.04 0.05 0.06 0.09 0.12 0.11 0.08 0.06 0.04 0.04 0.04 0.03 0.04 0.04 0.06 0.06 0.05 0.03 0.05 0.03 0.03 0.04 0.03 0.02 0.02 0.01 0.01 0.02 0.02 0.01 0.02 0.03 0.03 0.03 0.03 0.03 0.02 0.03
0.02 0.02 0.04 0.05 0.06 0.05 0.05 0.05 0.05 0.05 0.05 0.04 0.03 0.03 0.04 0.04 0.03 0.05 0.05 0.05 0.05 0.04 0.03 0.05 0.06 0.06 0.05 0.03 0.02 0.02 0.01 0.01 0.01 0.01 0.01 0.01 0.01 0.02 0.04 0.04 0.03 0.03 0.03
0.02 0.03 0.04 0.06 0.06 0.05 0.04 0.06 0.07 0.06 0.04 0.02 0.02 0.03 0.04 0.06 0.05 0.06 0.06 0.05 0.06 0.08 0.07 0.07 0.07 0.08 0.07 0.06 0.04 0.03 0.03 0.02 0.02 0.02 0.02 0.01 0.00 0.01 0.02 0.04 0.04 0.03 0.03
0.03 0.04 0.05 0.04 0.03 0.04 0.05 0.05 0.07 0.07 0.05 0.03 0.03 0.03 0.03 0.04 0.04 0.06 0.07 0.09 0.09 0.09 0.09 0.08 0.09 0.09 0.08 0.08 0.08 0.07 0.07 0.03 0.03 0.03 0.03 0.03 0.01 0.02 0.02 0.02 0.03 0.04 0.04
0.03 0.03 0.04 0.03 0.02 0.02 0.02 0.04 0.05 0.05 0.04 0.04 0.03 0.04 0.03 0.03 0.04 0.05 0.08 0.08 0.09 0.10 0.10 0.09 0.09 0.08 0.06 0.07 0.08 0.11 0.09 0.08 0.05 0.03 0.03 0.03 0.02 0.02 0.03 0.01 0.01 0.03 0.04
0.03 0.03 0.03 0.04 0.02 0.01 0.02 0.03 0.04 0.05 0.05 0.05 0.04 0.03 0.02 0.01 0.02 0.02 0.03 0.05 0.07 0.07 0.11 0.11 0.09 0.09 0.07 0.06 0.07 0.11 0.12 0.13 0.09 0.05 0.04 0.03 0.03 0.04 0.03 0.03 0.01 0.03 0.06
0.02 0.03 0.04 0.04 0.03 0.03 0.02 0.02 0.04 0.04 0.05 0.05 0.04 0.03 0.02 0.02 0.01 0.02 0.02 0.02 0.04 0.05 0.10 0.08 0.10 0.09 0.09 0.06 0.07 0.07 0.10 0.12 0.11 0.10 0.08 0.03 0.03 0.03 0.03 0.04 0.04 0.05 0.10
0.01 0.01 0.03 0.06 0.05 0.05 0.04 0.03 0.03 0.03 0.03 0.03 0.03 0.04 0.03 0.02 0.03 0.03 0.04 0.03 0.03 0.04 0.07 0.07 0.08 0.08 0.08 0.06 0.06 0.07 0.09 0.12 0.09 0.10 0.11 0.07 0.04 0.02 0.03 0.05 0.07 0.04 0.04
0.01 0.02 0.02 0.05 0.06 0.06 0.05 0.03 0.03 0.03 0.04 0.05 0.05 0.04 0.03 0.02 0.02 0.02 0.03 0.05 0.04 0.06 0.07 0.06 0.07 0.08 0.07 0.07 0.06 0.06 0.09 0.11 0.10 0.10 0.11 0.09 0.06 0.04 0.04 0.04 0.04 0.03 0.02
MSLP
1009.30 1008.98 1008.80 1008.85 1009.11 1009.53 1010.03 1010.51 1010.88 1011.10 1011.20 1011.22 1011.24 1011.32 1011.52 1011.84 1012.25 1012.71 1013.16 1013.54 1013.83 1014.03 1014.16 1014.26 1014.35 1014.45 1014.56 1014.66 1014.74 1014.78 1014.78 1014.76 1014.74 1014.77 1014.85 1015.00 1015.21 1015.46 1015.72 1015.95 1016.15 1016.32 1016.45
1009.32 1009.11 1009.06 1009.22 1009.55 1010.02 1010.53 1010.98 1011.32 1011.52 1011.61 1011.65 1011.71 1011.85 1012.11 1012.48 1012.93 1013.38 1013.79 1014.11 1014.33 1014.45 1014.52 1014.56 1014.61 1014.69 1014.78 1014.87 1014.94 1014.97 1014.96 1014.93 1014.92 1014.95 1015.05 1015.22 1015.44 1015.71 1015.97 1016.21 1016.40 1016.55 1016.67
1009.28 1009.20 1009.27 1009.54 1009.97 1010.49 1011.01 1011.45 1011.77 1011.95 1012.04 1012.09 1012.18 1012.37 1012.66 1013.04 1013.47 1013.88 1014.22 1014.47 1014.61 1014.66 1014.68 1014.70 1014.74 1014.82 1014.92 1015.02 1015.09 1015.11 1015.10 1015.08 1015.07 1015.10 1015.21 1015.39 1015.62 1015.90 1016.17 1016.42 1016.62 1016.77 1016.90
1009.18 1009.22 1009.43 1009.82 1010.34 1010.91 1011.46 1011.90 1012.21 1012.39 1012.47 1012.54 1012.65 1012.84 1013.13 1013.49 1013.86 1014.21 1014.47 1014.63 1014.71 1014.72 1014.71 1014.73 1014.79 1014.89 1015.02 1015.13 1015.21 1015.23 1015.22 1015.18 1015.16 1015.19 1015.30 1015.48 1015.73 1016.02 1016.31 1016.57 1016.79 1016.97 1017.12
1009.05 1009.22 1009.55 1010.05 1010.65 1011.28 1011.86 1012.32 1012.63 1012.80 1012.90 1012.97 1013.08 1013.27 1013.53 1013.83 1014.14 1014.40 1014.58 1014.67 1014.69 1014.68 1014.67 1014.72 1014.81 1014.95 1015.11 1015.24 1015.32 1015.34 1015.30 1015.25 1015.21 1015.22 1015.32 1015.50 1015.76 1016.05 1016.36 1016.65 1016.91 1017.12 1017.31
1008.95 1009.22 1009.65 1010.24 1010.92 1011.60 1012.20 1012.67 1012.98 1013.16 1013.27 1013.34 1013.46 1013.62 1013.85 1014.10 1014.33 1014.52 1014.62 1014.65 1014.64 1014.62 1014.64 1014.72 1014.86 1015.04 1015.22 1015.36 1015.43 1015.43 1015.36 1015.27 1015.20 1015.19 1015.27 1015.45 1015.71 1016.02 1016.34 1016.66 1016.95 1017.21 1017.44
1008.90 1009.25 1009.77 1010.43 1011.16 1011.86 1012.47 1012.93 1013.25 1013.43 1013.54 1013.63 1013.75 1013.91 1014.10 1014.30 1014.48 1014.60 1014.65 1014.64 1014.62 1014.61 1014.66 1014.78 1014.96 1015.16 1015.35 1015.49 1015.54 1015.50 1015.39 1015.26 1015.15 1015.11 1015.18 1015.35 1015.60 1015.92 1016.26 1016.59 1016.91 1017.21 1017.48
1008.93 1009.34 1009.91 1010.61 1011.35 1012.05 1012.65 1013.10 1013.40 1013.59 1013.71 1013.81 1013.94 1014.10 1014.28 1014.46 1014.59 1014.68 1014.70 1014.67 1014.65 1014.66 1014.73 1014.88 1015.08 1015.30 1015.49 1015.60 1015.62 1015.53 1015.38 1015.21 1015.08 1015.02 1015.07 1015.23 1015.48 1015.80 1016.14 1016.49 1016.82 1017.14 1017.43
1009.03 1009.47 1010.07 1010.77 1011.49 1012.16 1012.71 1013.14 1013.42 1013.60 1013.74 1013.86 1014.02 1014.20 1014.39 1014.56 1014.69 1014.75 1014.76 1014.73 1014.71 1014.73 1014.82 1014.98 1015.19 1015.41 1015.58 1015.66 1015.64 1015.53 1015.35 1015.15 1015.00 1014.93 1014.97 1015.13 1015.38 1015.69 1016.03 1016.37 1016.69 1017.01 1017.30
1009.14 1009.60 1010.20 1010.87 1011.54 1012.16 1012.66 1013.04 1013.30 1013.49 1013.64 1013.79 1013.98 1014.19 1014.41 1014.60 1014.73 1014.80 1014.80 1014.77 1014.75 1014.77 1014.86 1015.02 1015.22 1015.42 1015.57 1015.63 1015.59 1015.47 1015.28 1015.08 1014.93 1014.87 1014.92 1015.08 1015.32 1015.62 1015.94 1016.26 1016.56 1016.85 1017.13
1009.23 1009.68 1010.25 1010.88 1011.49 1012.04 1012.49 1012.82 1013.06 1013.24 1013.42 1013.61 1013.84 1014.09 1014.34 1014.55 1014.70 1014.78 1014.78 1014.74 1014.71 1014.73 1014.80 1014.94 1015.12 1015.31 1015.45 1015.51 1015.47 1015.35 1015.18 1015.01 1014.88 1014.84 1014.90 1015.07 1015.30 1015.58 1015.88 1016.16 1016.43 1016.68 1016.93
1009.23 1009.66 1010.19 1010.76 1011.31 1011.79 1012.19 1012.48 1012.71 1012.90 1013.10 1013.33 1013.60 1013.89 1014.17 1014.41 1014.58 1014.65 1014.65 1014.61 1014.56 1014.55 1014.61 1014.73 1014.89 1015.07 1015.21 1015.28 1015.27 1015.19 1015.06 1014.93 1014.84 1014.83 1014.90 1015.06 1015.29 1015.55 1015.81 1016.07 1016.30 1016.51 1016.73
1009.13 1009.52 1010.00 1010.51 1011.00 1011.43 1011.78 1012.05 1012.28 1012.48 1012.71 1012.98 1013.28 1013.60 1013.91 1014.16 1014.33 1014.41 1014.40 1014.35 1014.28 1014.26 1014.29 1014.39 1014.54 1014.72 1014.88 1014.98 1015.02 1014.99 1014.91 1014.83 1014.78 1014.79 1014.87 1015.02 1015.23 1015.46 1015.70 1015.92 1016.13 1016.32 1016.52
1008.93 1009.27 1009.69 1010.14 1010.58 1010.97 1011.30 1011.57 1011.80 1012.03 1012.28 1012.57 1012.90 1013.23 1013.55 1013.81 1013.98 1014.05 1014.04 1013.97 1013.90 1013.86 1013.88 1013.97 1014.12 1014.31 1014.49 1014.64 1014.73 1014.76 1014.74 1014.70 1014.67 1014.68 1014.76 1014.89 1015.07 1015.27 1015.48 1015.69 1015.89 1016.08 1016.27
1008.68 1008.97 1009.32 1009.72 1010.11 1010.47 1010.80 1011.08 1011.33 1011.58 1011.84 1012.15 1012.47 1012.80 1013.11 1013.36 1013.53 1013.60 1013.59 1013.53 1013.45 1013.41 1013.43 1013.52 1013.68 1013.89 1014.10 1014.29 1014.43 1014.51 1014.53 1014.51 1014.48 1014.48 1014.52 1014.61 1014.75 1014.92 1015.12 1015.33 1015.53 1015.73 1015.95
1008.48 1008.69 1008.98 1009.32 1009.67 1010.02 1010.34 1010.63 1010.90 1011.16 1011.42 1011.71 1012.02 1012.33 1012.61 1012.84 1013.00 1013.08 1013.08 1013.04 1012.99 1012.96 1012.99 1013.10 1013.27 1013.49 1013.73 1013.95 1014.12 1014.22 1014.26 1014.24 1014.20 1014.16 1014.14 1014.18 1014.27 1014.41 1014.59 1014.80 1015.03 1015.27 1015.52
1008.39 1008.53 1008.74 1009.02 1009.33 1009.66 1009.97 1010.27 1010.54 1010.80 1011.05 1011.30 1011.56 1011.82 1012.07 1012.27 1012.43 1012.52 1012.56 1012.55 1012.54 1012.55 1012.61 1012.73 1012.91 1013.14 1013.39 1013.61 1013.79 1013.89 1013.92 1013.89 1013.80 1013.71 1013.64 1013.61 1013.65 1013.75 1013.91 1014.14 1014.40 1014.68 1014.97
1008.48 1008.54 1008.67 1008.88 1009.15 1009.44 1009.75 1010.03 1010.29 1010.53 1010.74 1010.93 1011.13 1011.33 1011.52 1011.70 1011.85 1011.97 1012.04 1012.10 1012.14 1012.19 1012.28 1012.41 1012.59 1012.81 1013.04 1013.26 1013.42 1013.51 1013.52 1013.46 1013.34 1013.19 1013.05 1012.97 1012.95 1013.01 1013.16 1013.39 1013.67 1013.99 1014.33
1008.74 1008.74 1008.80 1008.94 1009.15 1009.40 1009.67 1009.94 1010.17 1010.36 1010.51 1010.64 1010.75 1010.88 1011.01 1011.16 1011.30 1011.45 1011.57 1011.68 1011.77 1011.87 1011.98 1012.12 1012.29 1012.48 1012.68 1012.86 1013.00 1013.07 1013.06 1012.97 1012.82 1012.64 1012.46 1012.32 1012.26 1012.28 1012.40 1012.62 1012.91 1013.24 1013.60
1009.15 1009.09 1009.09 1009.16 1009.31 1009.52 1009.76 1009.98 1010.17 1010.30 1010.38 1010.42 1010.46 1010.50 1010.57 1010.68 1010.82 1010.98 1011.15 1011.30 1011.44 1011.57 1011.69 1011.82 1011.96 1012.11 1012.27 1012.41 1012.52 1012.58 1012.56 1012.47 1012.32 1012.12 1011.92 1011.76 1011.65 1011.64 1011.72 1011.90 1012.17 1012.49 1012.84
1009.62 1009.54 1009.49 1009.51 1009.60 1009.76 1009.95 1010.14 1010.28 1010.35 1010.36 1010.33 1010.28 1010.24 1010.25 1010.32 1010.44 1010.60 1010.79 1010.98 1011.14 1011.28 1011.40 1011.49 1011.59 1011.69 1011.79 1011.90 1011.99 1012.04 1012.04 1011.98 1011.86 1011.69 1011.49 1011.32 1011.19 1011.13 1011.16 1011.29 1011.50 1011.78 1012.08
1010.07 1009.99 1009.92 1009.90 1009.95 1010.07 1010.22 1010.37 1010.47 1010.51 1010.47 1010.37 1010.25 1010.14 1010.09 1010.10 1010.19 1010.34 1010.53 1010.71 1010.88 1011.00 1011.08 1011.14 1011.17 1011.22 1011.27 1011.34 1011.43 1011.50 1011.54 1011.53 1011.47 1011.35 1011.19 1011.03 1010.88 1010.78 1010.75 1010.80 1010.93 1011.12 1011.36
1010.41 1010.37 1010.30 1010.27 1010.30 1010.40 1010.53 1010.66 1010.74 1010.76 1010.69 1010.55 1010.38 1010.22 1010.11 1010.07 1010.11 1010.22 1010.37 1010.53 1010.66 1010.74 1010.77 1010.77 1010.74 1010.73 1010.74 1010.79 1010.88 1010.98 1011.08 1011.15 1011.16 1011.11 1011.00 1010.85 1010.70 1010.55 1010.45 1010.41 1010.44 1010.54 1010.68
1010.60 1010.63 1010.59 1010.57 1010.60 1010.69 1010.82 1010.96 1011.05 1011.07 1011.00 1010.86 1010.67 1010.47 1010.31 1010.22 1010.20 1010.25 1010.34 1010.44 1010.51 1010.53 1010.51 1010.44 1010.35 1010.28 1010.26 1010.30 1010.39 1010.53 1010.69 1010.83 1010.92 1010.94 1010.88 1010.76 1010.59 1010.40 1010.22 1010.09 1010.01 1010.00 1010.05
1010.66 1010.76 1010.78 1010.78 1010.83 1010.93 1011.08 1011.24 1011.36 1011.42 1011.38 1011.26 1011.07 1010.86 1010.67 1010.53 1010.45 1010.43 1010.45 1010.47 1010.47 1010.42 1010.33 1010.19 1010.05 1009.94 1009.89 1009.91 1010.01 1010.17 1010.37 1010.57 1010.72 1010.79 1010.77 1010.66 1010.48 1010.25 1010.01 1009.78 1009.61 1009.50 1009.46
1010.60 1010.79 1010.87 1010.91 1010.99 1011.11 1011.29 1011.49 1011.66 1011.77 1011.78 1011.70 1011.54 1011.34 1011.13 1010.95 1010.81 1010.72 1010.66 1010.60 1010.53 1010.42 1010.26 1010.08 1009.90 1009.74 1009.66 1009.66 1009.76 1009.92 1010.14 1010.36 1010.53 1010.63 1010.63 1010.53 1010.33 1010.06 1009.77 1009.47 1009.22 1009.03 1008.91
Thickness
5792 5791 5788 5788 5787 5785 5784 5782 5781 5779 5778 5777 5776 5775 5774 5773 5772 5772 5771 5770 5770 5769 5769 5768 5767 5766 5766 5766 5765 5765 5764 5764 5763 5763 5762 5761 5759 5759 5758 5756 5756 5754 5753
5795 5791 5788 5786 5785 5783 5782 5781 5779 5778 5777 5776 5774 5773 5772 5771 5770 5770 5769 5769 5768 5767 5767 5766 5766 5765 5765 5765 5764 5764 5763 5763 5763 5762 5761 5760 5759 5758 5757 5756 5755 5753 5752
5796 5791 5788 5786 5783 5782 5781 5779 5778 5776 5775 5774 5773 5771 5770 5769 5768 5768 5768 5767 5767 5766 5766 5765 5765 5765 5764 5764 5763 5763 5762 5762 5762 5762 5761 5760 5758 5757 5756 5754 5753 5752 5750
5797 5792 5788 5785 5782 5781 5780 5778 5776 5775 5774 5773 5771 5770 5769 5768 5767 5767 5767 5766 5766 5765 5765 5765 5764 5764 5764 5763 5763 5762 5762 5762 5762 5762 5762 5761 5759 5756 5755 5753 5752 5750 5749
5797 5792 5786 5784 5782 5780 5778 5776 5775 5774 5773 5771 5770 5769 5767 5767 5766 5766 5765 5765 5765 5765 5764 5764 5764 5763 5763 5763 5762 5762 5762 5762 5762 5762 5763 5761 5759 5756 5754 5753 5751 5750 5749
5797 5792 5785 5783 5781 5779 5777 5775 5774 5772 5771 5770 5769 5768 5767 5766 5765 5765 5765 5764 5764 5764 5763 5763 5763 5762 5762 5762 5762 5762 5762 5762 5762 5763 5764 5761 5758 5756 5754 5753 5751 5750 5748
5797 5791 5786 5782 5780 5778 5776 5775 5773 5772 5771 5769 5768 5767 5766 5765 5764 5764 5764 5764 5763 5763 5763 5762 5762 5761 5761 5761 5761 5762 5762 5762 5764 5765 5764 5761 5757 5755 5754 5752 5751 5749 5748
5797 5791 5785 5781 5780 5778 5776 5774 5773 5771 5770 5769 5768 5767 5766 5765 5764 5764 5763 5763 5763 5762 5762 5761 5761 5761 5761 5761 5761 5761 5762 5762 5765 5766 5764 5760 5757 5755 5753 5752 5750 5749 5747
5797 5792 5786 5782 5779 5777 5775 5774 5773 5771 5770 5769 5768 5766 5766 5765 5765 5764 5763 5763 5762 5762 5761 5761 5761 5761 5761 5761 5761 5762 5762 5763 5763 5765 5763 5759 5757 5755 5753 5751 5750 5749 5747
5797 5793 5789 5785 5781 5779 5776 5774 5773 5772 5770 5769 5768 5767 5766 5766 5765 5764 5764 5763 5763 5762 5761 5761 5761 5761 5761 5762 5762 5762 5763 5763 5764 5765 5762 5758 5757 5755 5753 5751 5750 5748 5747
5794 5793 5790 5788 5784 5782 5779 5776 5774 5772 5770 5769 5768 5767 5767 5767 5767 5765 5765 5764 5763 5762 5762 5761 5761 5762 5762 5762 5763 5763 5764 5764 5766 5765 5762 5759 5757 5755 5753 5752 5750 5749 5747
5791 5791 5791 5789 5787 5785 5783 5778 5776 5774 5772 5771 5771 5769 5769 5769 5769 5768 5766 5765 5764 5763 5762 5762 5762 5762 5763 5764 5765 5765 5765 5766 5767 5765 5762 5759 5757 5756 5754 5752 5751 5749 5747
5793 5792 5792 5790 5788 5786 5784 5780 5779 5777 5774 5773 5773 5772 5771 5771 5770 5769 5767 5765 5765 5764 5764 5764 5764 5764 5766 5767 5768 5768 5768 5769 5768 5766 5762 5760 5758 5757 5755 5753 5751 5750 5748
5795 5793 5793 5791 5788 5785 5784 5783 5781 5779 5777 5775 5774 5774 5773 5773 5772 5770 5769 5768 5768 5767 5767 5768 5767 5767 5769 5770 5770 5770 5770 5770 5769 5766 5763 5761 5759 5758 5756 5754 5753 5751 5749
5796 5795 5794 5791 5787 5784 5783 5782 5782 5781 5779 5777 5776 5775 5775 5774 5773 5772 5771 5771 5771 5770 5769 5769 5769 5769 5770 5770 5771 5772 5771 5770 5769 5767 5764 5762 5761 5759 5758 5756 5754 5752 5751
5798 5796 5794 5791 5787 5784 5782 5782 5783 5782 5780 5780 5778 5776 5775 5775 5774 5773 5772 5771 5772 5772 5771 5770 5770 5770 5770 5771 5772 5772 5772 5771 5770 5768 5765 5763 5762 5760 5759 5758 5756 5754 5752
5800 5798 5795 5792 5789 5786 5784 5783 5784 5783 5782 5780 5779 5777 5776 5775 5774 5773 5773 5772 5772 5773 5772 5772 5772 5771 5771 5772 5772 5773 5772 5772 5771 5770 5768 5766 5764 5762 5761 5759 5757 5755 5754
5803 5799 5797 5797 5791 5788 5786 5785 5785 5784 5782 5781 5779 5778 5776 5775 5774 5774 5773 5773 5774 5774 5773 5773 5772 5771 5770 5771 5771 5772 5773 5773 5772 5772 5771 5769 5767 5765 5763 5761 5759 5757 5755
5806 5801 5798 5797 5793 5790 5787 5786 5786 5784 5783 5782 5781 5779 5778 5776 5776 5775 5775 5775 5775 5775 5774 5774 5772 5771 5769 5769 5770 5771 5773 5773 5773 5774 5773 5772 5770 5768 5766 5763 5761 5759 5757
5809 5804 5799 5797 5794 5791 5788 5786 5785 5784 5783 5783 5782 5781 5779 5778 5777 5777 5776 5776 5776 5775 5773 5773 5771 5771 5769 5769 5770 5771 5771 5773 5774 5774 5774 5773 5772 5771 5769 5766 5763 5761 5759
5809 5805 5801 5797 5794 5791 5788 5784 5781 5780 5782 5783 5783 5782 5780 5779 5779 5778 5778 5777 5776 5774 5773 5772 5771 5769 5769 5770 5766 5763 5768 5773 5774 5774 5774 5774 5773 5772 5771 5768 5766 5764 5761
5810 5806 5802 5798 5796 5793 5790 5788 5786 5785 5784 5784 5785 5784 5782 5781 5781 5781 5779 5778 5777 5775 5773 5772 5770 5767 5768 5770 5764 5757 5754 5760 5768 5774 5773 5772 5773 5772 5771 5770 5768 5766 5763
5811 5808 5806 5801 5799 5796 5794 5791 5788 5786 5784 5784 5783 5783 5783 5783 5782 5781 5780 5779 5778 5776 5773 5771 5770 5767 5764 5767 5768 5760 5752 5748 5756 5766 5769 5771 5771 5771 5770 5770 5769 5766 5764
5816 5813 5809 5804 5801 5798 5795 5791 5787 5782 5780 5782 5784 5785 5785 5784 5783 5782 5781 5780 5778 5777 5774 5772 5772 5769 5766 5762 5765 5766 5764 5761 5753 5752 5761 5768 5770 5769 5769 5770 5769 5767 5764
5822 5817 5812 5806 5802 5800 5796 5793 5789 5786 5785 5786 5786 5785 5784 5784 5783 5783 5782 5780 5778 5776 5774 5773 5772 5770 5768 5764 5763 5764 5763 5763 5761 5753 5750 5758 5764 5768 5769 5769 5768 5767 5765
5824 5820 5815 5807 5802 5800 5796 5794 5790 5787 5785 5784 5783 5782 5782 5783 5783 5783 5782 5780 5777 5775 5774 5772 5771 5770 5767 5766 5764 5764 5762 5759 5757 5755 5751 5752 5755 5762 5767 5768 5767 5767 5765